User: anonymous   Login
Location: Passau
(48.5830°N, 13.4830°E)
Time: 06:32:14
(UTC+02:00)
Language:

Tiros 1 - Orbit

View from above orbital plane
View from above orbital plane
View from above satellite
View from above satellite

Ground track
Ground track

The orbit data is extracted from the following two-line orbital elements,

1    29U 60002B   24144.83799395  .00001516  00000-0  24514-3 0  9999
2    29  48.3792   4.1464 0023782 263.0988  96.7219 14.76339952430676
Epoch (UTC): 23 May 2024 20:06:42
Eccentricity: 0.0023782
inclination: 48.3792°
perigee height: 624 km
apogee height: 657 km
right ascension of ascending node: 4.1464°
argument of perigee: 263.0988°
revolutions per day: 14.76339952
mean anomaly at epoch: 96.7219°
orbit number at epoch: 43067

The dashed part of the orbit path shows where the satellite is in the earth's shadow,  

DLR